Wind_Speed
18 17 15 13 11 8 7 8 9 9 10 13 16 19 22 24 24 10 3 3 7 11 10 10 3 3 3 3 2 2 6 8 8 8 2 6 10 7 7 7 9 7 3 2 26
20 18 16 14 12 10 8 8 9 11 11 13 16 19 21 25 18 12 4 4 7 11 8 9 8 7 3 2 4 7 7 6 4 4 5 4 9 12 10 14 12 10 5 19 25
22 20 18 16 14 12 10 10 10 10 11 13 15 19 20 21 10 3 4 5 5 7 5 5 5 4 4 3 5 4 10 3 7 6 6 5 7 11 16 19 17 18 16 20 24
22 20 19 18 16 14 12 12 12 11 11 13 15 19 20 8 6 3 4 5 3 3 5 5 4 4 4 6 3 9 10 10 10 3 6 9 5 11 16 13 11 11 18 20 20
23 21 19 18 17 16 13 13 13 11 13 15 15 16 11 6 9 9 11 4 1 3 5 3 4 2 6 3 7 12 12 9 10 11 12 11 14 12 12 12 5 10 17 20 19
24 22 20 18 18 17 15 14 14 15 15 15 14 12 4 12 9 7 8 6 5 6 7 5 4 3 6 7 9 3 9 12 11 13 11 13 16 9 14 7 9 15 19 19 20
26 23 22 20 19 18 16 15 17 18 16 15 14 5 6 19 8 8 11 9 9 11 11 6 4 7 1 6 5 9 13 14 16 15 12 11 19 17 16 12 14 15 17 18 19
27 25 24 22 20 20 17 17 21 20 15 14 10 1 7 16 13 19 16 17 14 14 13 8 4 7 8 4 7 10 11 12 3 7 13 11 20 18 17 14 16 18 17 18 20
28 26 25 23 23 22 18 16 16 8 4 2 2 5 9 6 7 8 12 9 5 6 10 5 7 6 4 10 10 10 12 11 10 8 9 14 14 10 11 14 18 17 17 18 18
26 24 23 21 21 16 12 8 4 5 4 3 3 5 8 4 1 1 3 5 4 8 8 8 7 8 9 11 13 13 12 10 11 3 10 17 21 14 9 14 17 18 19 19 20
19 21 21 21 19 17 16 12 4 5 8 9 5 4 1 2 3 5 4 7 6 9 10 12 10 12 18 16 16 13 14 15 13 10 12 18 21 17 15 16 17 17 17 19 21
22 23 22 20 16 18 13 3 3 3 7 18 18 17 18 6 6 9 6 7 8 12 8 7 15 14 15 12 14 15 17 18 16 14 14 20 26 20 20 21 20 21 21 22 22
24 20 18 20 18 10 4 2 1 5 5 6 12 12 11 14 12 16 11 6 10 14 14 18 8 5 7 14 13 17 18 17 17 15 17 21 30 25 22 25 22 22 24 24 25
22 22 21 19 12 10 3 9 3 5 2 5 6 2 6 7 6 8 22 12 10 13 17 14 12 18 17 15 12 18 14 12 14 12 12 4 16 14 14 13 15 21 23 25 26
23 22 19 15 14 9 9 12 9 2 4 7 5 5 4 7 3 4 2 13 21 13 6 4 3 4 11 16 12 12 6 10 12 13 15 15 10 3 3 7 14 17 21 22 23
23 23 25 13 8 7 19 17 6 4 8 5 5 6 7 8 2 4 2 4 3 16 18 20 10 6 3 2 5 6 7 9 8 9 10 15 13 22 7 13 16 5 9 15 19
24 23 22 14 7 16 22 9 5 6 3 7 5 6 5 5 6 5 7 8 5 5 12 15 22 19 12 14 9 7 7 6 8 7 8 1 10 17 18 13 10 12 19 11 13
27 26 22 11 14 21 16 5 7 6 5 3 4 5 4 5 3 7 7 6 7 4 3 4 4 7 13 17 9 9 13 7 8 8 6 2 10 7 5 8 8 8 10 11 5
30 23 18 12 18 18 9 6 6 5 4 6 5 8 5 5 2 5 4 3 4 3 4 2 4 4 7 3 7 4 8 12 8 7 5 10 21 21 8 10 13 11 16 12 9
17 8 6 15 17 11 4 13 7 2 2 3 8 3 7 4 6 6 5 2 3 6 4 2 5 2 2 4 6 8 2 1 3 5 7 9 11 10 13 11 15 18 18 18 12
10 4 3 15 13 3 8 6 9 4 3 2 4 6 4 4 4 3 4 5 2 4 4 2 3 7 3 4 2 3 7 7 8 6 4 11 12 12 10 14 15 19 18 15 16
5 3 2 16 4 2 4 7 3 8 4 3 4 6 4 2 2 2 5 2 3 2 2 4 2 7 10 8 9 10 10 6 4 9 5 6 10 15 13 17 20 20 19 21 21
3 3 6 2 7 4 2 4 3 7 6 4 4 1 2 4 4 4 5 4 3 2 2 3 2 6 8 6 2 3 2 4 5 4 14 11 11 12 22 24 22 13 19 20 21
3 4 2 2 2 6 7 5 6 4 5 2 3 4 4 5 4 4 4 2 1 1 4 2 8 10 14 14 12 16 16 12 12 10 15 16 22 22 26 25 20 16 17 17 17
1 2 0 5 4 7 4 5 9 6 4 8 5 9 8 6 8 12 9 8 6 3 6 5 6 10 17 20 15 16 18 20 19 19 18 22 23 24 24 23 21 16 16 16 15
3 3 2 3 11 10 6 6 9 7 8 9 5 7 8 6 5 2 3 4 5 4 3 1 3 5 10 12 12 16 21 23 22 23 23 25 25 28 21 15 15 17 17 14 11
2 2 2 3 10 8 9 12 13 10 3 4 7 6 6 3 1 1 3 6 9 9 8 7 5 4 17 12 7 11 22 22 23 21 18 16 23 19 17 17 16 16 18 18 12
Wind_Direction
224 225 225 229 234 249 276 303 309 310 328 337 340 340 341 336 333 325 259 350 343 349 340 327 305 348 218 196 212 253 253 262 254 241 218 172 200 200 188 180 199 179 279 46 153
225 228 230 231 236 240 251 274 292 313 326 332 335 338 340 337 324 293 216 334 350 355 352 354 358 335 209 199 200 231 246 276 316 290 268 230 223 189 201 195 199 186 131 137 153
223 225 229 232 233 237 244 255 274 292 313 323 330 337 339 338 294 139 172 338 328 0 337 329 310 307 264 236 193 196 252 324 251 281 286 287 249 218 221 209 216 206 168 163 166
224 224 225 228 232 236 243 256 270 285 304 316 332 337 340 332 297 151 225 318 296 351 328 328 306 287 283 251 225 253 239 261 273 232 281 270 292 224 229 223 254 225 171 171 177
222 223 224 228 232 238 243 254 271 293 298 308 322 328 350 297 259 273 280 272 260 328 330 333 298 290 269 273 266 246 262 265 258 274 273 273 259 258 233 226 247 190 175 182 185
221 221 223 228 233 240 247 253 264 270 278 294 306 319 304 279 276 264 259 253 263 286 282 261 283 308 274 261 251 329 276 272 271 261 254 264 261 230 234 179 203 182 186 188 193
227 226 227 229 237 241 247 260 264 266 268 280 288 305 251 246 271 278 279 263 265 278 267 249 248 245 260 252 263 270 276 267 253 248 245 259 253 227 240 189 193 197 196 194 196
234 238 236 234 238 245 248 252 252 250 251 268 283 224 248 264 268 267 266 268 263 250 242 233 210 261 245 287 241 260 257 269 167 248 227 230 259 243 205 195 200 203 199 200 200
237 239 239 235 237 240 239 243 233 221 233 232 217 236 262 282 254 276 232 241 202 205 202 198 195 233 206 239 252 216 266 241 277 242 259 223 267 253 157 203 224 211 204 204 201
230 234 235 229 228 220 202 170 182 116 141 172 200 241 247 251 248 264 175 195 207 146 155 201 202 220 223 221 240 261 235 246 261 242 251 259 261 249 215 228 231 223 216 207 207
213 218 215 206 195 164 143 114 164 195 207 220 186 262 238 277 259 210 192 189 188 203 214 200 213 211 224 225 258 273 271 264 264 261 288 267 270 266 259 215 236 231 223 216 215
167 163 164 152 133 139 147 203 343 357 283 232 249 251 264 289 269 220 181 206 206 224 188 195 232 240 265 290 258 254 259 263 275 275 274 274 273 269 258 244 229 230 223 222 221
155 148 139 134 131 143 143 159 114 343 274 249 231 245 248 219 241 244 198 216 228 237 222 248 241 159 282 259 253 248 255 269 274 292 276 274 276 263 247 238 234 231 236 225 221
163 159 162 152 147 164 198 196 140 63 310 236 207 206 186 218 241 239 225 231 220 252 247 270 286 265 252 248 249 263 267 264 270 272 272 21 289 289 274 263 221 233 235 235 228
170 166 167 148 146 171 165 181 160 83 282 114 154 126 154 206 343 93 195 209 236 215 204 216 252 249 241 251 243 274 298 264 272 266 277 254 267 300 154 236 237 229 241 238 235
174 169 163 155 153 156 153 150 161 158 240 163 148 175 177 196 180 114 153 194 220 239 245 256 280 266 282 233 235 247 248 242 256 257 257 240 235 287 290 35 350 312 254 250 242
178 171 167 158 165 157 150 151 137 218 142 169 164 186 203 160 186 182 170 185 196 180 220 239 243 238 238 249 213 225 234 249 229 209 248 41 218 254 312 8 354 318 308 286 247
185 179 171 162 155 154 162 163 203 207 208 101 163 179 179 149 145 176 165 199 213 246 289 251 188 209 206 233 240 226 234 240 259 252 257 114 245 227 22 308 326 346 351 338 293
184 163 165 155 161 163 174 204 212 207 162 169 162 176 143 150 173 176 113 90 37 258 237 260 216 136 138 237 207 184 223 248 256 251 283 256 276 285 20 31 346 344 343 344 330
157 118 102 168 168 159 184 214 219 203 191 202 198 277 165 135 166 185 148 52 99 26 244 101 260 268 307 232 225 263 354 213 178 233 234 234 245 271 310 6 354 348 347 346 347
147 129 140 163 147 156 208 218 205 179 201 203 149 132 136 141 115 109 98 120 101 46 37 335 249 159 289 223 343 228 228 228 262 236 273 281 272 307 355 349 341 327 325 325 329
108 136 47 150 147 170 197 174 164 166 192 136 113 106 140 129 189 205 198 86 98 16 0 43 289 266 278 308 294 267 273 267 253 266 256 282 275 301 326 319 314 309 309 313 306
87 115 22 150 180 177 175 123 150 172 175 166 134 130 164 196 219 217 199 89 95 26 41 25 228 297 275 162 207 183 357 291 255 248 258 277 275 305 302 299 310 315 315 318 313
127 148 133 113 277 156 147 140 124 184 158 132 143 133 159 201 208 191 194 142 87 62 92 319 250 252 261 279 321 291 288 274 249 265 270 266 284 288 292 294 312 316 317 315 314
68 144 99 165 176 130 128 152 159 155 181 190 181 208 210 235 224 232 237 246 239 240 225 234 245 237 251 265 268 266 267 263 258 252 260 275 277 280 281 296 308 310 308 310 311
127 153 139 102 152 141 128 164 179 166 179 186 188 179 203 221 247 170 176 196 242 180 150 174 256 216 266 264 259 263 259 254 256 261 266 267 270 270 288 290 297 296 301 297 296
127 121 158 148 162 163 183 174 188 173 171 106 169 165 184 175 229 345 262 265 256 261 262 251 259 277 269 272 279 258 251 252 254 250 246 255 263 279 280 289 293 299 302 305 291
Height
822 824 824 826 827 828 829 829 828 828 827 827 824 823 820 815 811 809 805 807 805 801 798 796 792 790 789 786 786 785 787 780 776 778 767 768 770 767 762 771 775 777 776 782 794
818 821 823 824 825 825 826 827 827 827 827 826 825 822 819 815 811 806 805 804 803 801 800 796 792 789 783 783 784 783 785 775 771 769 771 768 769 766 774 771 776 780 785 789 794
814 817 820 822 823 824 825 825 826 826 826 825 824 822 820 816 810 799 803 803 802 801 801 798 795 792 787 785 784 782 785 773 773 773 772 770 770 763 767 771 764 769 780 787 791
811 814 816 819 821 822 823 823 823 824 824 824 823 822 820 818 814 801 801 802 802 801 800 797 793 790 791 789 785 790 776 778 772 772 774 772 764 767 763 760 758 763 775 785 788
807 811 812 816 818 820 820 820 822 822 823 823 822 822 820 818 807 802 800 800 801 801 799 797 796 793 794 788 788 788 778 773 773 773 772 770 770 765 764 757 766 768 777 781 785
804 807 809 812 814 817 817 818 819 819 820 820 820 821 822 820 803 801 799 798 799 799 798 796 793 792 791 791 790 784 782 778 776 770 769 774 764 765 757 762 766 769 773 777 781
802 803 806 807 810 813 814 816 817 817 817 818 818 819 820 807 801 801 797 797 797 798 796 795 795 795 791 788 785 784 787 772 767 765 764 763 766 767 751 759 763 768 770 773 779
798 800 803 804 806 809 810 812 814 814 814 814 816 818 812 798 796 794 795 793 795 796 795 794 795 793 791 785 783 786 777 781 758 760 757 765 761 742 741 759 759 763 766 771 775
792 795 799 800 802 805 808 809 811 811 811 812 816 817 801 793 791 790 789 790 792 795 794 793 791 789 792 791 783 779 775 770 769 757 757 762 754 739 742 754 753 756 760 766 772
787 790 794 796 799 802 806 808 810 809 812 815 814 817 794 786 787 788 788 789 790 790 794 793 787 787 786 785 781 766 773 767 773 755 758 756 749 743 744 752 753 749 754 759 766
781 787 790 792 796 799 803 808 815 811 808 793 789 786 786 789 786 786 786 787 787 785 786 788 786 782 771 770 765 766 771 770 760 755 767 755 747 741 737 743 751 747 750 753 758
778 783 787 787 793 797 802 806 804 806 793 793 791 789 787 790 787 783 785 784 785 785 782 791 785 769 768 774 774 772 776 769 759 758 765 755 742 736 733 734 737 740 742 745 750
773 780 784 787 792 801 803 805 805 804 796 783 784 780 784 788 780 776 781 778 781 782 782 777 764 769 775 777 782 775 774 768 769 760 757 753 733 728 719 720 723 731 730 732 737
774 776 782 787 797 798 802 804 807 805 809 778 781 776 782 783 779 774 775 777 777 779 778 776 768 770 773 776 773 777 763 772 772 772 765 754 738 720 712 715 720 723 725 725 726
771 774 784 785 789 795 794 801 806 809 795 769 778 778 777 779 775 775 776 775 775 775 779 772 775 773 776 770 769 775 771 772 769 768 763 759 762 711 711 716 712 715 718 719 721
771 776 778 784 790 792 794 801 807 807 796 771 771 773 776 777 773 773 776 776 774 777 772 772 765 773 769 770 770 770 776 771 771 768 774 752 748 697 705 719 719 707 713 716 718
770 773 779 781 786 790 794 800 802 796 767 767 768 771 768 769 772 770 775 777 771 783 774 767 766 765 769 772 767 774 775 776 773 775 760 735 742 716 705 718 721 721 716 706 716
769 774 777 780 783 789 794 792 790 762 767 767 765 768 765 765 770 771 771 774 773 772 770 766 768 764 758 767 763 765 768 777 782 762 743 751 746 725 717 722 724 722 724 721 720
766 770 775 780 783 787 789 790 762 766 765 768 767 763 767 767 767 769 769 776 781 774 770 769 770 765 763 762 762 765 776 764 788 786 793 756 730 720 720 722 723 722 722 721 725
765 769 776 780 782 787 790 775 766 772 773 771 761 767 765 771 769 765 767 780 780 778 771 770 776 769 766 764 760 761 767 783 793 788 771 738 738 733 726 735 736 734 730 728 725
767 767 779 779 783 787 785 777 771 777 774 769 768 770 774 776 771 772 773 783 782 778 772 773 779 771 771 764 765 764 767 772 774 782 771 758 739 715 728 734 739 736 731 729 732
766 771 777 779 788 792 783 776 780 774 775 772 769 770 771 777 778 775 773 775 785 783 781 782 780 779 770 762 766 766 765 770 782 772 776 774 755 724 730 735 732 729 730 726 720
768 776 780 779 776 777 786 781 784 776 773 773 773 773 777 777 778 777 777 788 785 782 783 784 782 782 765 766 769 768 773 775 774 782 775 776 754 729 732 729 723 730 733 729 724
768 773 780 783 782 768 775 777 782 782 779 778 778 776 779 779 779 778 783 788 789 786 794 791 784 786 776 763 767 775 770 769 772 774 762 756 747 740 728 724 722 730 733 731 730
767 770 766 768 777 773 774 774 778 785 783 780 782 778 778 781 778 779 780 783 787 792 792 791 798 791 781 775 777 775 771 768 763 760 767 754 746 737 726 725 726 730 731 731 730
764 766 768 769 767 776 781 784 781 780 781 779 778 777 779 783 780 782 791 795 789 792 799 804 792 801 791 781 781 779 767 761 762 757 751 748 744 725 727 727 728 727 726 730 733
767 767 760 776 769 770 774 778 776 779 786 779 776 780 785 787 793 794 798 798 797 796 793 795 793 791 772 765 770 776 752 751 746 743 745 750 733 725 724 723 723 722 720 720 726